Regional Weather Roundup
Issued by NWS Mobile, AL

Home | Current Version | Previous Version | Text Only | Print | Product List | Glossary On
Versions: 1 2 3 4 5 6 7 8 9 10 11 12 13 14 15 16 17 18 19 20 21 22 23 24 25 26 27 28 29 30 31 32 33 34 35 36 37 38 39 40 41 42 43 44 45 46 47 48 49 50
369
ASUS44 KMOB 310212
RWRMOB
REGIONAL WEATHER ROUNDUP
NATIONAL WEATHER SERVICE MOBILE AL
900 PM CDT MON MAY 30 2016

NOTE: "FAIR" INDICATES FEW OR NO CLOUDS BELOW 12,000 FEET WITH NO
      SIGNIFICANT WEATHER AND/OR OBSTRUCTIONS TO VISIBILITY.

  * THESE STATIONS ARE PART OF THE UNIVERSITY OF SOUTH ALABAMA
    MESONET AND ARE NOT UNDER NWS OR FAA QUALITY CONTROL.

ALZ061>064-310300-
COASTAL ALABAMA

CITY           SKY/WX    TMP DP  RH WIND       PRES   REMARKS
MOBILE REG APT PTCLDY    75  68  78 CALM      29.96R
BROOKLEY FIELD PTCLDY    80  70  71 CALM      29.95R
USA CAMPUS*    NOT AVBL
DOG RIVER*     NOT AVBL


CITY           SKY/WX    TMP DP  RH WIND       PRES   REMARKS
MOUNT VERNON*  NOT AVBL
SARALAND*      NOT AVBL
BAY MINETTE*   NOT AVBL
LOXLEY*        NOT AVBL
ROBERTSDALE*   NOT AVBL
FAIRHOPE*      NOT AVBL
ELBERTA*       NOT AVBL
FOLEY*         NOT AVBL
GRAND BAY*     NOT AVBL
DAUPHIN ISLND* NOT AVBL
BON SCOUR NWR* NOT AVBL
GULF SHORES    PTCLDY    79  76  89 W6        29.94R

$$

ALZ051>060-310300-
INTERIOR SOUTHWEST AND SOUTH CENTRAL ALABAMA

CITY           SKY/WX    TMP DP  RH WIND       PRES   REMARKS
GREENVILLE     CLEAR     76  67  73 CALM      29.93R
EVERGREEN      CLEAR     77  68  73 CALM      29.94R
CASTLEBERRY*   NOT AVBL
ATMORE*        NOT AVBL
DIXIE*         NOT AVBL
ANDALUSIA/OPP  CLEAR     82  67  60 CALM      29.93R
ANDALUSIA*     NOT AVBL
FLORALA APT    CLEAR     76  67  73 CALM      29.96R
FLORALA*       NOT AVBL

$$

FLZ001>006-310300-
WESTERN FLORIDA PANHANDLE

CITY           SKY/WX    TMP DP  RH WIND       PRES   REMARKS
PENSACOLA      CLEAR     80  71  74 W8        29.93R
NAS PENSACOLA  NOT AVBL
MILTON         CLEAR     74  66  76 W6        29.94R
WHTNG S FIELD  CLEAR     77  68  73 CALM      29.94R


CITY           SKY/WX    TMP DP  RH WIND       PRES   REMARKS
WALNUT HILL*   NOT AVBL
JAY*           NOT AVBL
DUKE FIELD     CLEAR     78  68  72 S5        29.93R
CRESTVIEW      PTCLDY    78  66  66 SE5       29.95R
VALPARAISO     PTCLDY    79  71  75 CALM      29.94R
DESTIN         CLEAR     81  77  88 CALM      29.94R

$$

MSZ076-079-310300-
INTERIOR SOUTHEAST MISSISSIPPI

CITY           SKY/WX    TMP DP  RH WIND       PRES   REMARKS
LEAKESVILLE*   NOT AVBL
AGRICOLA*      NOT AVBL

$$

MARINE OBSERVATIONS

STATION/POSITION TIME  TEMP    WIND        PRES    WAVE
                       AIR SEA DIR/SP/G            HT/PER
                 (UTC) (F)     (DEG/KT/KT) (MB)    (FT/S)
PASCAGOULA       0100                      1013.4
PETIT BOIS ISLND 0100                      1014.2
GRAND BAY        0000   83     240/  6     1015.0
KATRINA CUT      0100   81     250/ 10     1013.9F
CEDAR POINT      0100   82     250/ 10     1013.5S
E DAUPHIN ISLAND 0100   81     240/  6/  8 1013.3F
MIDDLE BAY LIGHT 0100   82     240/ 10     1013.2F
USCG MOBILE BAY  0100      81              1013.9
STATE DOCKS      0100      82              1013.3
MEAHER PARK      0100   82     220/  8     1012.5S
WEEKS BAY        0000   83                   N/A
FORT MORGAN      0100                      1013.1
12 S ORANGE BCH  0150   81 82              1013.2R   1/ 3
PENSACOLA BAY    0100      80              1013.3F
64 S DAUPHIN ISL 0200   80 81  230/  6/  6 1014.4R

$$

SELECTED LOCATIONS ACROSS THE REGION

CITY           SKY/WX    TMP DP  RH WIND       PRES   REMARKS
NEW ORLEANS    MOCLDY    79  69  71 SW6       29.95R
GULFPORT       CLOUDY    76  73  91 CALM      29.94R
PASCAGOULA AP  CLOUDY    69  69 100 CALM      29.96R
PASCAGOULA*    NOT AVBL
HATTIESBURG    MOCLDY    79  70  74 CALM      29.96R
LAUREL         MOCLDY    79  19  11 CALM      29.98R
MERIDIAN       PTCLDY    79  68  69 S3        29.94R
JACKSON        TSTM      75  69  81 SE8       29.96R
MONTGOMERY     CLEAR     77  68  73 W3        29.91F
TROY           CLEAR     77  66  68 CALM      29.94R
KINSTON*       NOT AVBL
GENEVA*        NOT AVBL
ASHFORD*       NOT AVBL
DOTHAN         CLEAR     77  64  64 SW9       29.97R
PANAMA CITY    CLOUDY    77  72  84 CALM      29.93R

$$





USA.gov is the U.S. government's official web portal to all federal, state and local government web resources and services.